Погода в Криулино

Россия / Свердловская область     56°34′57″N   57°49′16″E
темп.,
°C
ветер,
м/с
пор.,
м/с
влажн.,
%
обл.,
%
осадки,
мм/ч
давл.,
гПа
погр.,
м
21 апреля, ср
ср2123:00+2з11600 0.0 103310
02:000з11640 0.0 103310
05:000зсз00640 0.0 103310
08:00+3зюз11540 0.0 1034125
11:00+8вюв21400 0.0 1033755
14:00+11ююв223468 0.0 10321224
17:00+12юв343439 0.0 10311258
20:00+8юв2650100 0.0 1031104
22 апреля, чт
чт2223:00+6юв2256100 0.0 103116
02:00+4ююв226483 0.0 103122
05:00+4ююв2370100 0.0 103249
08:00+5ю31162100 0.0 1031706
11:00+8ю51050100 0.0 10311030
14:00+8ююз41051100 0.0 10321134
17:00+7ююз51063100 0.0 10321302
20:00+7ююз386499 0.0 1031441
23 апреля, пт
пт2323:00+5ююз1271100 0.0 103227
02:00+4ююз2478100 0.0 1031125
05:00+3ю31096100 1.6 1031620
08:00+3ю3997100 2.3 1031661
11:00+4ююв2796100 2.8 1031617
14:00+5ю2487100 0.1 1031591
17:00+6ю2380100 0.1 1031677
20:00+5юв1192100 0.0 103114
24 апреля, сб
сб2423:00+3в1195100 0.0 102914
02:00+3всв2295100 0.0 102835
05:00+4всв2594100 0.2 1026155
08:00+4в2599100 1.6 1024151
11:00+5юв4995100 2.4 1022593
14:00+6юв4893100 0.9 1021668
17:00+6юв4991100 1.5 1019836
20:00+7вюв41080100 0.1 1017393
25 апреля, вс
вс2523:00+6юв51180100 0.1 1016527
02:00+5вюв4108788 0.1 1014448
05:00+3вюв41092100 0.1 1013401
08:00+3вюв3695100 0.2 1013611
11:00+3вюв1297100 0.9 1012553
14:00+4ю1392100 0.1 1013468
17:00+6ю2687100 0.7 1012645
20:00+5зюз7168238 2.5 10131228